[[{"header":{"parameterUnit":"m.s-1","parameterCategory":1,"la1":30.2991,"la2":30.254,"lo1":-89.0895,"lo2":-89.0444,"dy":0.0017,"dx":0.0017,"nx":28,"ny":28,"refTime":"2025-04-27T21:00:00:Z","depth":0,"parameterNumber":2,"parameterNumberName":"U-component_of_WINDS"},"data":[0,0,0,0,0,0,0,0,0,0,0,0,0,0,0,0,0,0,0,0,0,0,0,0,0,0,0,0,0,0,0,0,0,0,0,0,0,0,0,0,0,0,0,0,0,0,0,0,0,0,0,0,0,0,0,0,0,0,-0.5565,-0.5566,0,-0.5641,-0.5642,-0.5643,-0.5685,-0.5685,-0.5685,-0.5685,-0.5767,-0.5769,-0.5771,0,0,0,0,0,0,0,0,0,0,0,0,0,-0.5462,-0.5464,-0.5565,-0.5566,-0.5567,-0.5641,-0.5642,-0.5643,-0.5685,-0.5685,-0.5685,-0.5685,-0.5766,-0.5769,-0.5771,0,0,0,0,0,0,0,0,0,0,0,0,0,-0.552,-0.5465,-0.5565,-0.5597,-0.5601,-0.5641,-0.5642,-0.5643,-0.5685,-0.5685,-0.5685,-0.5685,-0.5765,-0.5768,-0.5772,-0.5787,0,0,-0.5781,-0.5782,0,0,0,0,0,0,0,0,-0.5516,-0.5523,-0.5591,-0.5595,-0.5599,-0.5654,-0.5635,-0.5691,-0.5685,-0.5653,-0.5685,-0.5686,-0.5729,-0.5735,-0.5749,-0.5791,-0.5794,-0.5781,-0.5783,-0.5784,-0.5785,0,0,0,0,0,0,0,-0.5512,-0.552,-0.5595,-0.5592,-0.5597,-0.5609,-0.5617,-0.5646,-0.5689,-0.5656,-0.5659,-0.5667,-0.5732,-0.5746,-0.5752,-0.5795,-0.5781,-0.5784,-0.5786,-0.5787,-0.5855,-0.5855,0,0,0,0,0,0,-0.5503,-0.5517,-0.5593,-0.5598,-0.5557,-0.5611,-0.562,-0.5636,-0.5689,-0.5697,-0.5667,-0.5669,-0.5741,-0.5748,-0.5755,-0.5777,-0.5784,-0.5787,-0.5789,-0.5855,-0.5855,-0.5855,0,0,0,0,0,0,-0.55,-0.5509,-0.559,-0.5558,-0.5569,-0.5612,-0.563,-0.5637,-0.5652,-0.5698,-0.5706,-0.5674,-0.5741,-0.575,-0.5779,-0.578,-0.5789,-0.5791,-0.5855,-0.5855,-0.5855,-0.5821,0,0,0,0,0,0,-0.5497,-0.5508,-0.5513,-0.5558,-0.5571,-0.5611,-0.563,-0.5639,-0.5657,-0.566,-0.5706,-0.5714,-0.5742,-0.5774,-0.5782,-0.5785,-0.5794,-0.5855,-0.5855,-0.5855,-0.5822,-0.5819,-0.5817,0,0,0,0,0,-0.5493,-0.5501,-0.5513,-0.5522,-0.5578,-0.5611,-0.5619,-0.565,-0.5657,-0.5663,-0.5692,-0.5713,-0.5779,-0.5776,-0.5786,-0.5789,-0.5855,-0.5855,-0.5855,-0.5823,-0.582,-0.5817,0,0,0,0,0,0,-0.5457,-0.5507,-0.5521,-0.5543,-0.5572,-0.5618,-0.5627,-0.5645,-0.5674,-0.5676,-0.5715,-0.5725,-0.5749,-0.5773,-0.5769,-0.5808,-0.5819,-0.5821,-0.5792,-0.5789,-0.5787,-0.5781,-0.5796,0,0,0,0,0,-0.5451,-0.5472,-0.5516,-0.5532,-0.5545,-0.5583,-0.5599,-0.562,-0.5652,-0.5665,-0.5697,-0.5728,-0.5757,-0.5774,-0.5803,-0.5825,-0.5837,-0.5833,-0.5831,-0.5828,-0.583,-0.5845,-0.5844,-0.5854,-0.5854,-0.5854,0,0,-0.544,-0.547,-0.5481,-0.5525,-0.555,-0.5572,-0.5593,-0.5616,-0.5634,-0.5669,-0.5698,-0.5722,-0.576,-0.5786,-0.5799,-0.5806,-0.5829,-0.5828,-0.5826,-0.5829,-0.5844,-0.5843,-0.5842,-0.5854,-0.5854,-0.5854,0,0,-0.5431,-0.5456,-0.5471,-0.5496,-0.5533,-0.5558,-0.5562,-0.5605,-0.5622,-0.5651,-0.5678,-0.57,-0.5748,-0.5774,-0.5793,-0.5795,-0.5815,-0.5803,-0.5792,-0.5806,-0.5805,-0.5804,-0.5806,-0.5805,-0.5804,-0.5804,-0.5804,0,-0.5413,-0.5446,-0.5478,-0.5499,-0.5518,-0.555,-0.5567,-0.559,-0.5634,-0.5648,-0.5654,-0.5715,-0.5743,-0.5775,-0.5776,-0.579,-0.5797,-0.5798,-0.5802,-0.5802,-0.5802,-0.5804,-0.5804,-0.5802,-0.5803,-0.5803,-0.5803,0,-0.5423,-0.5446,-0.5454,-0.5495,-0.5515,-0.5534,-0.557,-0.5587,-0.5607,-0.5632,-0.5662,-0.5696,-0.5732,-0.5742,-0.5762,-0.5778,-0.5781,-0.5794,-0.5807,-0.5799,-0.5801,-0.5802,-0.58,-0.5801,-0.5801,-0.5802,0,0,-0.5393,-0.5451,-0.5453,-0.5473,-0.5516,-0.5535,-0.5557,-0.559,-0.5605,-0.5635,-0.5655,-0.5694,-0.5707,-0.5729,-0.5752,-0.5765,-0.5765,-0.5777,-0.5779,-0.5774,-0.5785,-0.5775,-0.5775,-0.5778,-0.5778,-0.5779,-0.5782,0,-0.5391,-0.5428,-0.5457,-0.5485,-0.5507,-0.5538,-0.5557,-0.5587,-0.5611,-0.5635,-0.5663,-0.569,-0.5704,-0.5718,-0.5731,-0.5762,-0.5768,-0.5762,-0.5798,-0.5799,-0.5788,-0.5776,-0.5765,-0.5767,-0.5783,-0.5784,-0.5784,0,-0.5393,-0.542,-0.5449,-0.5491,-0.5501,-0.5517,-0.5551,-0.5573,-0.5608,-0.5625,-0.565,-0.5674,-0.57,-0.5709,-0.5746,-0.5741,-0.5758,-0.5776,-0.5776,-0.5781,-0.5791,-0.5781,-0.5769,-0.5769,-0.5785,-0.5785,-0.5785,0,-0.5369,-0.5413,-0.5437,-0.5452,-0.5501,-0.5512,-0.5533,-0.5568,-0.5586,-0.5617,-0.563,-0.5663,-0.5681,-0.5707,-0.5741,-0.5744,-0.5774,-0.5787,-0.579,-0.579,-0.5795,-0.5795,-0.5785,-0.5806,-0.5806,-0.5806,-0.5806,0,-0.5363,-0.538,-0.5426,-0.5441,-0.5461,-0.5495,-0.5515,-0.5539,-0.557,-0.5591,-0.562,-0.564,-0.5682,-0.5707,-0.5734,-0.5761,-0.5769,-0.5784,-0.5791,-0.5782,-0.578,-0.5793,-0.5794,-0.5806,-0.5806,-0.5806,-0.5806,0,-0.5339,-0.5371,-0.5398,-0.5442,-0.5454,-0.5467,-0.5505,-0.5521,-0.5547,-0.5573,-0.5582,-0.5623,-0.5654,-0.569,-0.5733,-0.5751,-0.5776,-0.5786,-0.5763,-0.5768,-0.5769,-0.5769,-0.5769,-0.5771,-0.5789,-0.5789,-0.5789,0,-0.5334,-0.5347,-0.5392,-0.5407,-0.5427,-0.5452,-0.5471,-0.5506,-0.5525,-0.5565,-0.5577,-0.561,-0.5638,-0.5687,-0.5722,-0.5755,-0.5767,-0.5764,-0.5772,-0.5762,-0.5767,-0.5766,-0.5768,-0.5762,-0.5762,-0.5761,-0.5761,0,-0.5321,-0.5336,-0.5361,-0.5392,-0.5413,-0.544,-0.5468,-0.5479,-0.552,-0.554,-0.5571,-0.5593,-0.5637,-0.567,-0.5708,-0.5732,-0.5754,-0.5758,-0.5761,-0.5752,-0.5739,-0.5746,-0.5758,-0.5758,-0.5759,-0.5759,-0.5759,-0.5759,-0.5307,-0.532,-0.5354,-0.5381,-0.5406,-0.5431,-0.5448,-0.5476,-0.5502,-0.5539,-0.5559,-0.559,-0.5626,-0.5679,-0.5702,-0.5728,-0.5736,-0.574,-0.5741,-0.5741,-0.5739,-0.5734,-0.5736,-0.5736,-0.5736,-0.5736,-0.5736,0,-0.5296,-0.5319,-0.5343,-0.5381,-0.5403,-0.542,-0.5452,-0.547,-0.5496,-0.5527,-0.5554,-0.5591,-0.5623,-0.566,-0.5695,-0.5709,-0.572,-0.5717,-0.5717,-0.5722,-0.573,-0.5724,-0.5708,-0.5708,-0.5708,-0.5708,-0.5708,-0.5708,-0.5293,-0.5316,-0.5335,-0.5372,-0.5396,-0.5425,-0.5442,-0.5466,-0.5491,-0.553,-0.5556,-0.558,-0.5614,-0.5652,-0.5683,-0.5693,-0.5705,-0.5699,-0.5713,-0.5719,-0.5722,-0.5724,-0.5719,-0.5701,-0.5701,-0.5703,-0.5703,-0.5703]},{"header":{"parameterUnit":"m.s-1","parameterCategory":1,"la1":30.2991,"la2":30.254,"lo1":-89.0895,"lo2":-89.0444,"dy":0.0017,"dx":0.0017,"nx":28,"ny":28,"refTime":"2025-04-27T21:00:00:Z","depth":0,"parameterNumber":3,"parameterNumberName":"V-component_of_WINDS"},"data":[0,0,0,0,0,0,0,0,0,0,0,0,0,0,0,0,0,0,0,0,0,0,0,0,0,0,0,0,0,0,0,0,0,0,0,0,0,0,0,0,0,0,0,0,0,0,0,0,0,0,0,0,0,0,0,0,0,0,2.3263,2.3264,0,2.3267,2.3267,2.3267,2.3227,2.3226,2.3225,2.3224,2.3227,2.3228,2.3229,0,0,0,0,0,0,0,0,0,0,0,0,0,2.3221,2.3222,2.3263,2.3264,2.3264,2.3267,2.3267,2.3267,2.3227,2.3226,2.3225,2.3224,2.3227,2.3228,2.3229,0,0,0,0,0,0,0,0,0,0,0,0,0,2.3234,2.3223,2.3263,2.3244,2.3243,2.3267,2.3267,2.3267,2.3228,2.3226,2.3224,2.3223,2.3226,2.3228,2.3229,2.3272,0,0,2.3234,2.3235,0,0,0,0,0,0,0,0,2.3233,2.3235,2.3247,2.3246,2.3244,2.3245,2.3253,2.3269,2.3228,2.3233,2.3224,2.3222,2.3234,2.3235,2.3239,2.3273,2.3273,2.3235,2.3236,2.3236,2.3237,0,0,0,0,0,0,0,2.3232,2.3235,2.3265,2.3247,2.3245,2.3235,2.3235,2.3256,2.3243,2.3233,2.323,2.3231,2.3233,2.3238,2.3239,2.3273,2.3235,2.3236,2.3237,2.3238,2.3341,2.3343,0,0,0,0,0,0,2.3234,2.3235,2.3265,2.3265,2.3234,2.3237,2.3237,2.3246,2.3243,2.324,2.3232,2.3229,2.3236,2.3237,2.3239,2.3289,2.3236,2.3238,2.3239,2.3339,2.3342,2.3343,0,0,0,0,0,0,2.3233,2.3237,2.3265,2.3249,2.3252,2.324,2.325,2.3247,2.3252,2.3242,2.324,2.324,2.3235,2.3237,2.3264,2.3289,2.3239,2.324,2.3337,2.334,2.3343,2.339,0,0,0,0,0,0,2.3232,2.3237,2.3254,2.325,2.3253,2.329,2.3252,2.3248,2.3255,2.3251,2.3249,2.3247,2.3234,2.3262,2.3266,2.329,2.3241,2.3335,2.3339,2.3342,2.3386,2.3394,2.34,0,0,0,0,0,2.3231,2.3267,2.3255,2.3258,2.3273,2.3292,2.3293,2.3278,2.3257,2.3273,2.3267,2.3247,2.3286,2.3265,2.3269,2.3294,2.3334,2.3338,2.3341,2.3383,2.3392,2.34,0,0,0,0,0,0,2.3273,2.3266,2.3252,2.3288,2.3291,2.3285,2.3305,2.3288,2.3297,2.3293,2.3273,2.3273,2.3304,2.3302,2.3279,2.3336,2.3306,2.3311,2.3336,2.3345,2.3352,2.3351,2.3243,0,0,0,0,0,2.3287,2.3303,2.3295,2.3327,2.3329,2.3317,2.3325,2.3313,2.3315,2.3316,2.3311,2.3314,2.3327,2.3336,2.3347,2.3385,2.3384,2.3405,2.3412,2.3418,2.3422,2.3442,2.3451,2.3357,2.3356,2.3356,0,0,2.3315,2.3312,2.3324,2.3336,2.3336,2.3353,2.3318,2.3338,2.335,2.3318,2.3344,2.3341,2.3343,2.3377,2.3391,2.3376,2.3448,2.3423,2.3427,2.3429,2.3447,2.3456,2.3464,2.3359,2.3359,2.3358,0,0,2.3374,2.3374,2.3401,2.3403,2.3404,2.3396,2.3403,2.3399,2.3396,2.3422,2.3399,2.3413,2.3436,2.3438,2.3442,2.3502,2.3484,2.3507,2.3544,2.3564,2.3571,2.3578,2.3599,2.3607,2.3511,2.3511,2.3511,0,2.3408,2.3433,2.3416,2.3438,2.3443,2.3416,2.3443,2.3445,2.3451,2.3455,2.3438,2.3466,2.3465,2.3498,2.3513,2.3518,2.3524,2.3507,2.3572,2.3578,2.3584,2.3604,2.3612,2.3514,2.3514,2.3513,2.3513,0,2.3475,2.3493,2.3514,2.3521,2.3529,2.3553,2.3539,2.3549,2.3537,2.353,2.3557,2.3555,2.3565,2.3572,2.356,2.3604,2.3595,2.3575,2.3545,2.3596,2.3615,2.3622,2.3518,2.3517,2.3516,2.3515,0,0,2.3561,2.3558,2.3566,2.3569,2.3569,2.3582,2.3605,2.3615,2.3625,2.3629,2.3648,2.3667,2.3649,2.3654,2.3642,2.3659,2.3707,2.3637,2.3637,2.365,2.3756,2.3771,2.378,2.3695,2.3697,2.3698,2.3756,0,2.3619,2.3658,2.3643,2.3683,2.3699,2.3673,2.3693,2.3695,2.369,2.3702,2.3696,2.371,2.3685,2.3688,2.3704,2.3698,2.3728,2.3694,2.3712,2.3713,2.3712,2.379,2.3805,2.386,2.3763,2.3764,2.3765,0,2.3692,2.37,2.3741,2.3739,2.3745,2.3763,2.3771,2.3784,2.3786,2.378,2.3786,2.377,2.3791,2.3761,2.3791,2.3768,2.3774,2.3773,2.3774,2.3775,2.3742,2.3793,2.3877,2.3886,2.3777,2.3776,2.3775,0,2.375,2.3771,2.3799,2.3802,2.38,2.3813,2.3813,2.3813,2.382,2.3828,2.3832,2.3842,2.3847,2.3855,2.3842,2.3821,2.3873,2.3842,2.3869,2.387,2.3881,2.3881,2.3968,2.3886,2.3886,2.3886,2.3886,0,2.3816,2.3842,2.3825,2.3842,2.387,2.3854,2.3882,2.3879,2.388,2.3895,2.3874,2.3889,2.3871,2.3884,2.3874,2.39,2.3902,2.3899,2.3896,2.3901,2.3901,2.3904,2.39,2.3888,2.3887,2.3887,2.3887,0,2.3886,2.3876,2.3904,2.39,2.3899,2.3921,2.3917,2.3932,2.3925,2.3945,2.3949,2.3938,2.3953,2.3941,2.3955,2.3948,2.3982,2.3974,2.3982,2.3979,2.4007,2.4005,2.41,2.4111,2.4022,2.4023,2.4024,0,2.3929,2.3949,2.3947,2.3956,2.3957,2.3972,2.3979,2.3964,2.3972,2.3976,2.3991,2.4004,2.4013,2.4038,2.4031,2.4041,2.4033,2.4065,2.4034,2.4039,2.4033,2.4032,2.4034,2.4072,2.4073,2.4074,2.4074,0,2.4006,2.4,2.4012,2.4022,2.4031,2.4038,2.4044,2.4052,2.4036,2.4047,2.4062,2.4069,2.4083,2.4096,2.4105,2.4104,2.4087,2.4084,2.4091,2.4096,2.41,2.4098,2.3999,2.4082,2.4081,2.4081,2.408,2.408,2.4064,2.408,2.4082,2.4095,2.4098,2.4103,2.4117,2.4112,2.4125,2.4135,2.4125,2.4143,2.4144,2.4154,2.4156,2.4169,2.4156,2.4166,2.4168,2.4171,2.4175,2.4098,2.4171,2.417,2.417,2.417,2.417,0,2.414,2.414,2.4152,2.4161,2.4172,2.4154,2.4159,2.417,2.4186,2.4189,2.4198,2.4215,2.4228,2.4222,2.4233,2.4245,2.4237,2.4248,2.4247,2.4247,2.4186,2.4179,2.4255,2.4255,2.4255,2.4255,2.4254,2.4254,2.4181,2.4207,2.4202,2.4229,2.4228,2.4246,2.425,2.4255,2.4257,2.4278,2.4288,2.4284,2.4284,2.4294,2.4305,2.4303,2.4308,2.4322,2.4317,2.426,2.4252,2.4244,2.4237,2.4323,2.4323,2.4377,2.4378,2.4378]}]]